Weather History for Columbus, OH

Change the Weather History Date:

Friday, December 7, 2012

  Actual Average Record
Temperature  
Mean Temperature 48 °F 36 °F  
Max Temperature 52 °F 43 °F 69 °F (1998)
Min Temperature 44 °F 29 °F -1 °F (1882)
Degree Days  
Heating Degree Days 17 29  
Month to date heating degree days 117 196  
Since 1 July heating degree days 1234 1210  
Cooling Degree Days 0 0  
Month to date cooling degree days 0 0  
Year to date cooling degree days 1439 1024  
Moisture  
Dew Point 47 °F    
Average Humidity 92    
Maximum Humidity 100    
Minimum Humidity 83    
Precipitation  
Precipitation 0.72 in 0.10 in 1.15 in (1950)
Month to date precipitation 1.92 0.68  
Year to date precipitation 33.49 37.02  
Snow  
Snow 0.00 in 0.20 in 1.70 in (2007)
Month to date snowfall 0.0 0.8  
Since 1 July snowfall 0.8 1.9  
Snow Depth 0.00 in    
Sea Level Pressure  
Sea Level Pressure 29.94 in    
Wind  
Wind Speed 2 mph (SE)    
Max Wind Speed 9 mph    
Max Gust Speed 10 mph    
Visibility 3 miles    
Events Fog , Rain    
T = Trace of Precipitation, MM = Missing Value Source: NWS Daily Summary

Daily Weather History Graph

Daily Weather History Graph

Search for Another Location

Airport:

Trip Planner

Search our weather history database for the weather conditions in past years. The results will help you decide how hot, cold, wet, or windy it might be!

Date:

Astronomy

Dec. 07, 2012 Rise Set
Actual Time 7:40 AM EST 5:06 PM EST
Civil Twilight 7:09 AM EST 5:36 PM EST
Nautical Twilight 6:36 AM EST 6:10 PM EST
Astronomical Twilight 6:03 AM EST 6:43 PM EST
Moon 12:58 AM EST (12/7) 1:02 PM EST (12/7)
Length of Visible Light 10h 26m
Length of Day
9h 25m
Last Quarter, 39% of the Moon is Illuminated
Dec 7
Last Quarter
Dec 13
New
Dec 20
First Quarter
Dec 28
Full
Jan 4
Last Quarter

Hourly Weather History & Observations

Time (EST) Temp. Windchill Dew Point Humidity Pressure Visibility Wind Dir Wind Speed Gust Speed Precip Events Conditions
12:51 AM 44.1 °F - 42.1 °F 93% 29.99 in 4.0 mi Calm Calm - 0.02 in Rain Light Rain
1:28 AM 44.6 °F - 42.8 °F 93% 29.98 in 5.0 mi Calm Calm - 0.03 in Rain Light Rain
1:51 AM 44.1 °F - 43.0 °F 96% 29.99 in 3.0 mi Calm Calm - 0.08 in Rain Rain
2:01 AM 44.6 °F - 42.8 °F 93% 29.98 in 3.0 mi Calm Calm - 0.02 in Rain Light Rain
2:38 AM 44.6 °F - 44.6 °F 100% 29.98 in 2.5 mi Calm Calm - 0.08 in Rain Light Rain
2:51 AM 45.0 °F - 44.1 °F 97% 29.99 in 2.5 mi Calm Calm - 0.10 in Rain Rain
3:04 AM 44.6 °F - 44.6 °F 100% 29.98 in 3.0 mi Calm Calm - 0.02 in Rain Light Rain
3:39 AM 44.6 °F - 44.6 °F 100% 29.97 in 2.5 mi Calm Calm - 0.08 in Rain Rain
3:51 AM 45.0 °F 43.5 °F 44.1 °F 97% 29.98 in 2.5 mi SE 3.5 mph - 0.09 in Rain Light Rain
4:03 AM 44.6 °F 43.1 °F 44.6 °F 100% 29.97 in 3.0 mi SSE 3.5 mph - 0.02 in Rain Light Rain
4:51 AM 46.0 °F 43.1 °F 45.0 °F 96% 29.98 in 3.0 mi South 5.8 mph - 0.02 in   Overcast
5:51 AM 46.0 °F 43.9 °F 45.0 °F 96% 29.98 in 3.0 mi South 4.6 mph - N/A   Overcast
6:02 AM 46.4 °F 45.2 °F 44.6 °F 93% 29.97 in 3.0 mi South 3.5 mph - N/A   Overcast
6:31 AM 46.4 °F - 46.4 °F 100% 29.97 in 1.0 mi Calm Calm - N/A   Overcast
6:51 AM 46.9 °F - 46.0 °F 97% 29.99 in 0.5 mi WSW 3.5 mph - N/A   Overcast
7:41 AM 46.4 °F - 46.4 °F 100% 29.99 in 0.2 mi Calm Calm - 0.00 in Fog Light Drizzle
7:51 AM 46.9 °F - 46.0 °F 97% 30.00 in 0.2 mi South 3.5 mph - 0.00 in Fog Heavy Drizzle
8:00 AM 46.4 °F - 46.4 °F 100% 29.99 in 0.5 mi Calm Calm - 0.00 in Fog Drizzle
8:15 AM 46.4 °F - 46.4 °F 100% 30.00 in 0.2 mi Calm Calm - 0.00 in Fog Heavy Drizzle
8:32 AM 46.4 °F - 46.4 °F 100% 29.99 in 0.2 mi Calm Calm - 0.00 in Fog Heavy Drizzle
8:51 AM 46.9 °F - 46.9 °F 100% 30.00 in 0.5 mi Calm Calm - 0.00 in   Drizzle
9:07 AM 46.4 °F - 46.4 °F 100% 29.99 in 0.8 mi Calm Calm - 0.00 in   Overcast
9:19 AM 46.4 °F 45.2 °F 46.4 °F 100% 30.00 in 1.0 mi SSW 3.5 mph - 0.00 in Rain Light Rain
9:26 AM 48.2 °F - 46.4 °F 93% 30.00 in 0.8 mi Calm Calm - 0.00 in Rain Light Rain
9:51 AM 48.0 °F - 46.9 °F 96% 30.01 in 0.8 mi Calm Calm - 0.01 in Rain Light Rain
10:29 AM 48.2 °F - 46.4 °F 93% 30.00 in 1.5 mi Calm Calm - 0.00 in   Overcast
10:51 AM 48.0 °F - 48.0 °F 100% 30.01 in 1.5 mi Calm Calm - 0.00 in Rain Light Rain
11:51 AM 48.9 °F - 48.0 °F 97% 29.99 in 1.5 mi Calm Calm - 0.00 in Rain Light Rain
12:39 PM 48.2 °F - 46.4 °F 93% 29.96 in 1.5 mi Calm Calm - 0.01 in Rain Light Rain
12:51 PM 48.9 °F - 48.0 °F 97% 29.96 in 1.5 mi Calm Calm - 0.02 in Rain Light Rain
1:51 PM 50.0 °F - 48.0 °F 93% 29.94 in 1.5 mi Calm Calm - 0.03 in Rain Light Rain
2:51 PM 50.0 °F - 48.9 °F 96% 29.93 in 1.5 mi Calm Calm - 0.04 in Rain Light Rain
3:07 PM 50.0 °F - 48.2 °F 94% 29.91 in 1.5 mi Calm Calm - 0.01 in Rain Light Rain
3:44 PM 50.0 °F - 48.2 °F 94% 29.90 in 4.0 mi East 4.6 mph - 0.05 in Rain Light Rain
3:51 PM 50.0 °F - 48.0 °F 93% 29.91 in 5.0 mi East 3.5 mph - 0.05 in Rain Light Rain
4:51 PM 50.0 °F - 48.0 °F 93% 29.91 in 6.0 mi Calm Calm - 0.02 in Rain Light Rain
5:40 PM 48.2 °F - 48.2 °F 100% 29.91 in 5.0 mi Calm Calm - 0.02 in Rain Rain
5:51 PM 48.9 °F - 46.9 °F 93% 29.92 in 4.0 mi Calm Calm - 0.04 in Rain Rain
6:02 PM 48.2 °F - 48.2 °F 100% 29.90 in 4.0 mi NE 4.6 mph - 0.02 in Rain Light Rain
6:30 PM 48.2 °F - 48.2 °F 100% 29.89 in 4.0 mi East 3.5 mph - 0.06 in Rain Rain
6:51 PM 48.9 °F - 48.0 °F 97% 29.89 in 6.0 mi East 5.8 mph - 0.07 in Rain Light Rain
7:10 PM 50.0 °F - 48.2 °F 94% 29.89 in 5.0 mi ESE 5.8 mph - 0.01 in Rain Light Rain
7:51 PM 50.0 °F - 48.9 °F 96% 29.90 in 5.0 mi East 4.6 mph - 0.03 in Rain Light Rain
8:30 PM 50.0 °F - 48.2 °F 94% 29.88 in 6.0 mi East 3.5 mph - 0.02 in Rain Light Rain
8:51 PM 50.0 °F - 48.9 °F 96% 29.88 in 7.0 mi East 5.8 mph - 0.03 in Rain Light Rain
9:32 PM 50.0 °F - 48.2 °F 94% 29.87 in 4.0 mi ESE 3.5 mph - 0.05 in Rain Rain
9:46 PM 50.0 °F - 48.2 °F 94% 29.86 in 6.0 mi ESE 3.5 mph - 0.06 in Rain Light Rain
9:51 PM 50.0 °F - 48.9 °F 96% 29.86 in 7.0 mi SE 3.5 mph - 0.06 in Rain Light Rain
10:00 PM 50.0 °F - 50.0 °F 100% 29.86 in 7.0 mi ESE 4.6 mph - 0.00 in Rain Light Rain
10:51 PM 50.0 °F - 50.0 °F 100% 29.86 in 8.0 mi ESE 4.6 mph - 0.00 in Rain Light Rain
11:05 PM 50.0 °F - 50.0 °F 100% 29.85 in 3.0 mi ESE 5.8 mph - 0.00 in Rain Light Rain
11:18 PM 51.8 °F - 50.0 °F 94% 29.84 in 2.0 mi SSE 5.8 mph - 0.00 in Rain Light Rain
11:31 PM 51.8 °F - 50.0 °F 94% 29.84 in 3.0 mi SE 5.8 mph - 0.01 in Rain Light Rain
11:51 PM 51.1 °F - 51.1 °F 100% 29.85 in 4.0 mi SSE 8.1 mph - 0.01 in   Overcast